map of NDR home
NDR - Airport
Location
City:  Nador, Nador, Morocco
Name:Nador International Airport
Old (Alt.):Arwi Airport, Al Aroui Airport
ICAO:GMMW
IATA:NDR

Details
Type:Airport (Aerodrome, Airfield)
Use:Public/Civil, International (customs port of entry)
Latitude:3459'20"N (34.988781)
Longitude:301'42"W (-3.028205)
Datum:WGS 1984
Elevation:574 ft (175 m)
Variation:0.48W (WMM2015 magnetic declination)
0.11 annual change
Runways:1
Longest:9842 × 148 ft (3000 × 45 m), paved

Time
Time Zone:UTC+0 (DST+1)
Local Time:

Weather
METAR:GMMW 110700Z 23014G25KT 190V260 9999 FEW026 SCT100 BKN200 18/05 Q1004 NOSIG
TAF:GMMW 110500Z 1106/1212 21010KT CAVOK
TEMPO 1107/1112 24017KT
TEMPO 1111/1120 3000 RA
BECMG 1113/1117 BKN010

Related Locations
Nearby:
Farthest:NZOX: 12318 mi / 19824 km
Okiwi Station, AUK, NZ

Find:

   beyond  
but within

Other Information
Maps:
NOTAMs:
Links:
Sources:

  
flag of Morocco   

Sectional Chart

Flight Planning
at skyvector.com

Satellite Image

Google Maps Satellite view

 

Copyright © 2004-2017 Karl L. Swartz. All rights reserved.
The Great Circle Mapper name and logo are trademarks of the Great Circle Mapper.
All other trademarks mentioned herein belong to their respective owners.
Please see credits for attibutions and further copyright information.

  Follow gcmap on Facebook Follow gcmap on Twitter Follow gcmap on Google+ GCmap on LinkedIn

hCard Microformat

Geo Microformat